STARLINK-4061, 53247

Orbit data source: Space-Track

STARLINK-4061, 53247 is a payload satellite owned by SpaceX/Seattle (US) in LEO that was launched on Sun, 24 Jul 2022 UTC via an FALCON 9 launch vehicle from the Air Force Eastern Test Range (AFETR). Payload-class satellites include a variety of spacecraft equipped with specific instruments for various scientific and technological missions. These include communications satellites like Starlink; space stations such as the ISS; scientific satellites like the Hubble; Earth observation satellites from companies like Planet Labs, Umbra, and HawkEye 360; GPS; miniature CubeSats for education and research; and military/defense satellites.

Loading next visibility...
Identifier
53247, 2022-086F
Orbit
LEO
Country
Flag of USUS
Related business
Manufacturer
SpaceX/Seattle
Mission
Operational Commercial Communications
Bus & Motor
STARLINK, Unknown motor
Mass
297 kg wet, ~275 kg dry
Launch date (UTC)
2022-07-24 (4 years ago)
Launch vehicle
FALCON 9
Launch site
Air Force Eastern Test Range (AFETR)
Object type
Payload
Rocket body
Debris
Shape & HBR
Box + 1 Pan, 10.1 m
Radar Cross Section
13.562 m², Large (>1 m²)

Expand to show TLE details & history
Last TLE update: 3 days ago

TLE from 3 days ago
0 STARLINK-4061
1 53247U 22086F   26170.52937817  .00000573  00000-0  54092-4 0  9996
2 53247  53.1614 102.0191 0001523  94.9778 265.1387 15.08836682216684
Epoch: 2026-06-19T12:42Z
TLE epoch observation values (Epoch: 2026-06-19T12:42:18.273Z)
Latitude
-0.00007°
Longitude
3.68587°
Altitude
540.734 km
Speed
7.593 km/s
True Right ascension
06h 48m 04s
True Declination
0° 00' 00"
Sunlit
Object was in daylight at epoch
Visualization orbit readout
Latitude
Unknown
Longitude
Unknown
Altitude
Unknown
Speed
Unknown
Apparent Right ascension
Unknown
Apparent Declination
Unknown
Sunlit
N/A
Visualization observer readout
Local Sidereal Time
23:08:38
Azimuth
Unknown
Elevation
Unknown
Doppler factor
Unknown
Orbital elements
Apogee altitude
541.061 km
Perigee altitude
538.954 km
Semi-major axis
6,918.144 km
Eccentricity
0.00015
Inclination
53.1614°
RAAN
102.0191°
Arg. of periapsis
94.9778°
True anomaly
265.12131°
Mean anomaly
265.1387°
Eccentric anomaly
265.13001°
Mean motion
3.77189 °/min
Orbital period
95.44 mins
BSTAR
0.000054092
Loading maneuver chart data...
Computing Atmospheric mass density...

Documentation

Showing up to 5 results
|